EN

Hourly Weather Pererisl'

Today, 18 May, Tuesday

Time Temperature Precipitation Wind Pressure Humidity
00:00 +15°C° 0 mm 1 mps 719 mmHg 81%
01:00 +14°C° 0 mm 1 mps 718 mmHg 80%
02:00 +14°C° 0 mm 1 mps 718 mmHg 82%
03:00 +12°C° 0 mm 3 mps 718 mmHg 86%
04:00 +13°C° 0.1 mm 2 mps 717 mmHg 86%
05:00 +12°C° 1.6 mm 1 mps 717 mmHg 100%
06:00 +11°C° 0.2 mm 3 mps 717 mmHg 100%
07:00 +13°C° 0.1 mm 1 mps 718 mmHg 97%
08:00 +14°C° 0 mm 1 mps 718 mmHg 89%
09:00 +15°C° 0 mm 1 mps 718 mmHg 86%
10:00 +15°C° 0.9 mm 2 mps 718 mmHg 92%
11:00 +15°C° 0.4 mm 2 mps 718 mmHg 89%
12:00 +17°C° 0 mm 2 mps 718 mmHg 83%
13:00 +17°C° 0.2 mm 3 mps 717 mmHg 84%
14:00 +16°C° 0.4 mm 5 mps 717 mmHg 88%
15:00 +17°C° 0 mm 5 mps 718 mmHg 83%
16:00 +17°C° 0 mm 5 mps 717 mmHg 85%
17:00 +15°C° 0.2 mm 8 mps 718 mmHg 88%
18:00 +13°C° 0 mm 8 mps 718 mmHg 91%
19:00 +14°C° 0.1 mm 6 mps 718 mmHg 92%
20:00 +14°C° 0 mm 7 mps 719 mmHg 88%
21:00 +12°C° 0 mm 7 mps 719 mmHg 90%
22:00 +12°C° 0 mm 7 mps 720 mmHg 90%
23:00 +11°C° 0 mm 7 mps 720 mmHg 91%

Tomorrow, 19 May, Wednesday

Time Temperature Precipitation Wind Pressure Humidity
00:00 +11°C° 0 mm 6 mps 720 mmHg 91%
01:00 +11°C° 0 mm 7 mps 721 mmHg 91%
02:00 +11°C° 0 mm 7 mps 721 mmHg 92%
03:00 +11°C° 0 mm 6 mps 721 mmHg 92%
04:00 +11°C° 0 mm 6 mps 721 mmHg 92%
05:00 +10°C° 0 mm 5 mps 721 mmHg 92%
06:00 +10°C° 0 mm 6 mps 722 mmHg 91%
07:00 +11°C° 0 mm 6 mps 722 mmHg 89%
08:00 +13°C° 0 mm 6 mps 723 mmHg 89%
09:00 +14°C° 0 mm 7 mps 723 mmHg 88%
10:00 +14°C° 0 mm 7 mps 723 mmHg 89%
11:00 +14°C° 0 mm 6 mps 724 mmHg 89%
12:00 +15°C° 0 mm 5 mps 724 mmHg 88%
13:00 +15°C° 0 mm 6 mps 724 mmHg 83%
14:00 +17°C° 0 mm 5 mps 723 mmHg 80%
15:00 +17°C° 0 mm 5 mps 723 mmHg 75%
16:00 +17°C° 0 mm 5 mps 723 mmHg 78%
17:00 +18°C° 0 mm 4 mps 723 mmHg 79%
18:00 +17°C° 0 mm 4 mps 723 mmHg 86%
19:00 +17°C° 0 mm 2 mps 723 mmHg 85%
20:00 +15°C° 0 mm 2 mps 723 mmHg 91%
21:00 +15°C° 0 mm 1 mps 723 mmHg 94%
22:00 +14°C° 0 mm 1 mps 723 mmHg 96%
23:00 +13°C° 0 mm 0 mps 723 mmHg 98%

Day after tomorrow, 20 May, Thursday

Time Temperature Precipitation Wind Pressure Humidity
00:00 +13°C° 0 mm 2 mps 723 mmHg 100%
01:00 +13°C° 0 mm 2 mps 722 mmHg 100%
02:00 +13°C° 0 mm 2 mps 722 mmHg 100%
03:00 +12°C° 0 mm 2 mps 722 mmHg 100%
04:00 +12°C° 0 mm 1 mps 722 mmHg 100%
05:00 +12°C° 0 mm 2 mps 722 mmHg 100%
06:00 +12°C° 0 mm 1 mps 722 mmHg 100%
07:00 +12°C° 0 mm 2 mps 722 mmHg 100%
08:00 +12°C° 0 mm 2 mps 722 mmHg 99%
09:00 +11°C° 0.1 mm 3 mps 723 mmHg 100%
10:00 +11°C° 0.6 mm 3 mps 723 mmHg 100%
11:00 +12°C° 0.4 mm 3 mps 723 mmHg 99%
12:00 +14°C° 0 mm 5 mps 723 mmHg 94%
13:00 +14°C° 0 mm 5 mps 722 mmHg 90%
14:00 +15°C° 0 mm 5 mps 722 mmHg 89%
15:00 +15°C° 2 mm 6 mps 722 mmHg 93%
16:00 +13°C° 0.6 mm 8 mps 722 mmHg 90%
17:00 +13°C° 0 mm 8 mps 722 mmHg 90%
18:00 +12°C° 1.6 mm 7 mps 722 mmHg 97%
19:00 +11°C° 5.4 mm 6 mps 723 mmHg 99%
20:00 +10°C° 12.2 mm 5 mps 723 mmHg 100%
21:00 +11°C° 11.3 mm 4 mps 724 mmHg 100%
22:00 +10°C° 2.1 mm 5 mps 724 mmHg 100%
23:00 +10°C° 3.7 mm 5 mps 725 mmHg 100%

21 May, Friday

Time Temperature Precipitation Wind Pressure Humidity
00:00 +10°C° 0.5 mm 6 mps 725 mmHg 99%
01:00 +10°C° 0 mm 7 mps 725 mmHg 96%
02:00 +10°C° 0 mm 6 mps 726 mmHg 96%
03:00 +9°C° 0 mm 6 mps 727 mmHg 97%
04:00 +9°C° 0 mm 6 mps 727 mmHg 98%
05:00 +9°C° 0 mm 6 mps 728 mmHg 98%
06:00 +8°C° 0 mm 6 mps 728 mmHg 98%
07:00 +9°C° 0 mm 6 mps 729 mmHg 98%
08:00 +8°C° 0 mm 5 mps 730 mmHg 98%
09:00 +9°C° 0 mm 5 mps 731 mmHg 98%
10:00 +11°C° 0 mm 4 mps 731 mmHg 98%
11:00 +11°C° 0 mm 4 mps 732 mmHg 98%
12:00 +12°C° 0 mm 3 mps 732 mmHg 95%
13:00 +14°C° 0 mm 4 mps 732 mmHg 90%
14:00 +16°C° 0.2 mm 3 mps 732 mmHg 84%
15:00 +15°C° 0.2 mm 5 mps 732 mmHg 85%
16:00 +16°C° 0.2 mm 3 mps 732 mmHg 85%
17:00 +15°C° 0 mm 5 mps 732 mmHg 83%
18:00 +14°C° 0 mm 4 mps 732 mmHg 82%
19:00 +14°C° 0 mm 3 mps 732 mmHg 85%
20:00 +14°C° 0 mm 1 mps 732 mmHg 90%
21:00 +13°C° 0 mm 1 mps 732 mmHg 88%
22:00 +13°C° 0 mm 1 mps 732 mmHg 87%
23:00 +12°C° 0 mm 1 mps 732 mmHg 87%

22 May, Saturday

Time Temperature Precipitation Wind Pressure Humidity
00:00 +12°C° 0 mm 1 mps 732 mmHg 87%
01:00 +11°C° 0 mm 1 mps 732 mmHg 86%
02:00 +11°C° 0 mm 1 mps 732 mmHg 86%
03:00 +10°C° 0 mm 1 mps 732 mmHg 87%
04:00 +10°C° 0 mm 1 mps 732 mmHg 86%
05:00 +10°C° 0 mm 1 mps 732 mmHg 86%
06:00 +10°C° 0 mm 1 mps 731 mmHg 90%
07:00 +10°C° 0 mm 2 mps 732 mmHg 95%
08:00 +13°C° 0 mm 2 mps 732 mmHg 92%
09:00 +13°C° 0 mm 3 mps 732 mmHg 88%
10:00 +16°C° 0 mm 3 mps 732 mmHg 85%
11:00 +17°C° 0 mm 3 mps 732 mmHg 80%
12:00 +18°C° 0 mm 3 mps 732 mmHg 79%
13:00 +18°C° 0 mm 3 mps 732 mmHg 82%
14:00 +19°C° 0 mm 3 mps 731 mmHg 80%
15:00 +19°C° 0 mm 4 mps 731 mmHg 77%
16:00 +19°C° 0 mm 4 mps 730 mmHg 77%
17:00 +19°C° 0 mm 4 mps 730 mmHg 75%
18:00 +18°C° 0 mm 3 mps 731 mmHg 80%
19:00 +17°C° 0.5 mm 4 mps 730 mmHg 90%
20:00 +16°C° 0.2 mm 3 mps 730 mmHg 90%
21:00 +14°C° 0 mm 3 mps 730 mmHg 93%
22:00 +14°C° 0 mm 3 mps 730 mmHg 97%
23:00 +14°C° 0 mm 2 mps 730 mmHg 97%

23 May, Sunday

Time Temperature Precipitation Wind Pressure Humidity
00:00 +15°C° 0 mm 2 mps 730 mmHg 85%
01:00 +15°C° 0 mm 1 mps 730 mmHg 74%
02:00 +14°C° 0 mm 1 mps 730 mmHg 68%
03:00 +14°C° 0 mm 1 mps 730 mmHg 66%
04:00 +14°C° 0 mm 1 mps 729 mmHg 67%
05:00 +14°C° 0 mm 2 mps 730 mmHg 68%
06:00 +14°C° 0 mm 2 mps 729 mmHg 74%
07:00 +15°C° 0 mm 2 mps 730 mmHg 85%
08:00 +17°C° 0 mm 2 mps 730 mmHg 84%
09:00 +18°C° 0 mm 2 mps 731 mmHg 74%
10:00 +20°C° 0 mm 1 mps 731 mmHg 74%
11:00 +18°C° 0 mm 4 mps 731 mmHg 91%
12:00 +17°C° 0 mm 2 mps 731 mmHg 88%
13:00 +18°C° 0.1 mm 2 mps 731 mmHg 89%
14:00 +19°C° 0 mm 2 mps 731 mmHg 86%
15:00 +20°C° 0.1 mm 2 mps 731 mmHg 88%
16:00 +19°C° 2.3 mm 2 mps 731 mmHg 96%
17:00 +19°C° 0.2 mm 4 mps 730 mmHg 95%
18:00 +18°C° 2.8 mm 2 mps 730 mmHg 98%
19:00 +17°C° 1.1 mm 2 mps 730 mmHg 100%
20:00 +17°C° 0.1 mm 2 mps 730 mmHg 100%
21:00 +16°C° 0 mm 1 mps 730 mmHg 100%
22:00 +15°C° 0 mm 0 mps 730 mmHg 100%
23:00 +15°C° 0 mm 0 mps 730 mmHg 100%
Show more

We Need Your Consent

Meteoprog and our Service Providers may store and access personal data such as cookies, device identifiers or other similar technologies on your device and process such data to personalise content and ads, as well as provide social media features and to analyse the traffic.

  • Store and/or access information on your device

    Cookies, device identifiers or other information can be stored or accessed on your device for the purposes indicated above.

  • Personalised ads and content, ad and content measurement, audience insights, and products development

    Ads and content can be personalised based on a profile. More data can be added to better personalise ads and content. Ad and content performance can be measured. Insights about the audience who saw the ads and content can be derived. Such data can be used to develop or improve user’s experience, systems and software.

By clicking ‘I Agree’ you will allow the use of indicated cookies, device identifiers, web beacons or other similar technologies. Your settings can be changed in the browser on your device.

For certain purposes, legitimate interests may be relied on, rather than consent. You can read more about this in our Privacy and Cookie Policy.